[Iaude] MPEC T66: 2023 TU1 [a=2.45,e=0.71,i=0.9,H=25.6]
    mpec at marsden.cfa.harvard.edu 
    mpec at marsden.cfa.harvard.edu
       
    Sat Oct  7 01:37:57 EDT 2023
    
    
  
M.P.E.C. 2023-T66                               Issued 2023 October 7, 05:36 UT
     The Minor Planet Electronic Circulars contain information on unusual
         minor planets, routine data on comets and natural satellites,
         and occasional editorial announcements.  They are published
    on behalf of Division F of the International Astronomical Union by the
          Minor Planet Center, Smithsonian Astrophysical Observatory,
                          Cambridge, MA 02138, U.S.A.
			  
             Prepared using the Tamkin Foundation Computer Network
                              MPC at CFA.HARVARD.EDU
            URL https://www.minorplanetcenter.net/    ISSN 1523-6714
                                    2023 TU1                                    
Observations:
     K23T01U*1C2023 10 05.21633023 48 07.157+12 02 05.24         20.42GVET066G96
     K23T01U 1C2023 10 05.22196523 48 10.246+12 01 50.48         20.64GVET066G96
     K23T01U 1C2023 10 05.22761423 48 13.295+12 01 34.79         20.13GVET066G96
     K23T01U 1C2023 10 05.23325823 48 16.376+12 01 19.20               VET066G96
     K23T01U mC2023 10 05.34355023 49 14.765+11 56 17.38         20.30GVET066I52
     K23T01U mC2023 10 05.34402323 49 14.970+11 56 16.01         21.33GVET066I52
     K23T01U mC2023 10 05.34450523 49 15.211+11 56 14.50         20.89GVET066I52
     K23T01U mC2023 10 05.34497523 49 15.510+11 56 13.49         20.59GVET066I52
     K23T01U KC2023 10 06.15520923 56 09.510+11 23 29.80         20.21GVET066I52
     K23T01U KC2023 10 06.15620623 56 09.942+11 23 28.25         21.00GVET066I52
     K23T01U KC2023 10 06.15720523 56 10.370+11 23 25.69         21.51GVET066I52
     K23T01U KC2023 10 06.22148023 56 36.15 +11 21 05.3          20.8 GXET066858
     K23T01U KC2023 10 06.22747723 56 38.56 +11 20 52.5          21.6 GXET066858
     K23T01U KC2023 10 06.23347123 56 41.00 +11 20 39.4          21.0 GXET066858
     K23T01U  C2023 10 07.18352400 02 53.076+10 50 05.72         21.1 GVET066H01
     K23T01U  C2023 10 07.18938700 02 54.928+10 49 55.88         21.2 GVET066H01
     K23T01U  C2023 10 07.21866100 03 04.091+10 49 06.39         21.2 GVET066H01
     K23T01U  C2023 10 07.22426600 03 05.834+10 48 56.96         20.9 GVET066H01
Observer details:
858 Tebbutt Observatory, Edgewood.  Observer F. B. Zoltowski.  0.51-m f/8.1
    Schmidt-Cassegrain + CCD.
G96 Mt. Lemmon Survey.  Observer G. J. Leonard.  Measurers E. C. Beshore, D.
    Fay, J. B. Fazekas, D. C. Fuls, A. R. Gibbs, A. D. Grauer, H. Groeller, J.
    K. Hogan, R. A. Kowalski, S. M. Larson, G. J. Leonard, D. Rankin, R. L.
    Seaman, F. C. Shelly, K. W. Wierzchos.  1.5-m reflector + 10K CCD.
H01 Magdalena Ridge Observatory, Socorro.  Observers W. H. Ryan, E. V. Ryan.
    Measurer W. H. Ryan.  2.4-m f/8.9 Ritchey-Chretien + CCD.
I52 Steward Observatory, Mt. Lemmon Station.  Observer D. Rankin.  Measurers
    E. C. Beshore, D. Fay, J. B. Fazekas, D. C. Fuls, A. R. Gibbs, A. D.
    Grauer, H. Groeller, J. K. Hogan, R. A. Kowalski, S. M. Larson, G. J.
    Leonard, D. Rankin, R. L. Seaman, F. C. Shelly, K. W. Wierzchos.  1.0-m
    prime focus + CCD.
Orbital elements:
2023 TU1                                                 Earth MOID = 0.0136 AU
Epoch 2023 Sept. 13.0 TT = JDT 2460200.5                MPC                     
M   6.94233              (2000.0)            P               Q                  
n   0.25647151     Peri.  354.11575     +0.39206462     +0.91984494             
a   2.4534467      Node   298.96665     -0.84341632     +0.35374641             
e   0.7060922      Incl.    0.85544     -0.36733397     +0.16955460             
P   3.84           H   25.69          G   0.15           U   9                  
Residuals in seconds of arc
231005 G96  0.7-  0.5-    231005 I52  0.7-  0.3-    231006 858  0.4-  0.0
231005 G96  0.1-  0.1+    231005 I52  0.1+  0.0     231006 858  0.0   0.3-
231005 G96  0.1-  0.2-    231006 I52  0.3-  0.1-    231007 H01  0.0   0.2-
231005 G96  0.6+  0.3-    231006 I52  0.1-  0.4+    231007 H01  0.0   0.1-
231005 I52  0.2+  0.0     231006 I52  0.1+  0.0     231007 H01  0.0   0.1+
231005 I52  0.5-  0.1-    231006 858  0.3-  0.0     231007 H01  0.0   0.1+
Ephemeris:
2023 TU1                 a,e,i = 2.45, 0.71, 1                   q = 0.7211
Date    TT    R. A. (2000) Decl.     Delta      r    Elong.  Phase     V
2023 09 07    12 59 45.4 -04 41 17   0.2541  0.8032    31.8   138.6    28.9
...
2023 09 22    13 42 50.0 -01 40 48   0.08055 0.9331    27.3   150.5    28.6
...
2023 09 30    20 41 20.3 +21 03 00   0.02269 1.0142   123.0    55.9    19.5
...
2023 10 06    23 54 54.2 +11 30 01   0.08004 1.0778   166.0    13.0    21.1
2023 10 07    00 01 45.4 +10 56 11   0.09096 1.0886   167.1    11.8    21.4
2023 10 08    00 07 08.6 +10 29 00   0.1020  1.0993   167.9    11.0    21.6
...
2023 10 14    00 24 49.8 +08 56 44   0.1701  1.1645   167.8    10.5    22.8
...
2023 10 22    00 35 03.9 +08 07 35   0.2661  1.2521   162.8    13.6    24.1
...
2023 11 06    00 46 33.4 +07 47 46   0.4649  1.4152   150.7    20.1    25.8
A. U. Tomatic                (C) Copyright 2023 MPC           M.P.E.C. 2023-T66
    
    
More information about the Iaude
mailing list